"Pseudo-MPEC" for P11JurB

Created 2023 Sep 22 17:22:22 UT using Find_Orb

Click here for an explanation of pseudo-MPECs

 
 Astrometry: 
     P11JurB* C2023 09 14TclO4^@^ni3?bLiaQdm@Nm0!?6jyAstrometrywxDM*`e%D3nX,0F51
     P11JurB  C2023 09 14^vq6`g]Z;redacted;PjqoZaHX_?fI,N:?vLL,1HWGclickbx*vnF51
     P11JurB  C2023 09 144fe)GL,Ye%5QNQ]WkhereW-):O+qPGp4CfordHexplanation/)+F51

Station data:
(F51) Pan-STARRS 1, Haleakala  (N20.707234 W156.255910)  US/Hawaii.
   Observers J. Bulger, T. Lowe, A. Schultz, M. Willman. Measurers K.
   Chambers, S. Chastel, T. de Boer, L. Denneau, J. Fairlamb, H. Flewelling,
   M. Huber, C.-C. Lin, E. Magnier, Y. Ramanjooloo, R. Wainscoat, R. Weryk.
   1.8-m Ritchey-Chrétien + CCD.

Orbital elements:  P11JurB
   Perihelion 2024 Apr 3.56821 +/- 215 TT = 13:38:12 (JD 2460404.06821)
Epoch 2023 Sep 14.0 TT = JDT 2460201.5   Earth MOID: 0.4459   Ma: 0.0774
M 297.15702875 +/- 56               (J2000 ecliptic)             AutoNEOCP
n   0.31023116 +/- 0.226            Peri.  300.11271 +/- 100
a   2.16112105 +/- 1.05             Node   161.58714 +/- 38
e   0.3902280 +/- 0.278             Incl.   23.15730 +/- 28
P   3.18                   H 20.11  G  0.15   U 11.8  SR
q 1.31779106 +/- 0.794    Q 3.00445105 +/- 34.4
From 3 observations 2023 Sept. 14 (50.6 min); mean residual 0".10
Residuals in arcseconds: 
230914 F51  .13-  .03-    230914 F51  .19+  .04+    230914 F51  .06-  .01-    

Ephemerides (geocentric):
Date (UTC) HH   RA             Dec           delta  r     elong  mag " sig PA
---- --------  ------------   ------------  ------ ------ -----  --- --------
2023 09 22 17  23 43 52.362   -13 39 30.59  1.0590 2.0481 166.3 22.3  31d  88
2023 09 22 18  23 43 49.883   -13 40 25.49  1.0589 2.0479 166.3 22.3  32d  88
2023 09 22 19  23 43 47.404   -13 41 20.38  1.0588 2.0477 166.2 22.3  32d  88
2023 09 22 20  23 43 44.924   -13 42 15.25  1.0587 2.0475 166.2 22.3  32d  88
2023 09 22 21  23 43 42.444   -13 43 10.11  1.0586 2.0473 166.2 22.3  32d  88
2023 09 22 22  23 43 39.964   -13 44 04.96  1.0585 2.0471 166.1 22.3  32d  87
2023 09 22 23  23 43 37.483   -13 44 59.80  1.0584 2.0469 166.1 22.3  33d  87
2023 09 23 00  23 43 35.002   -13 45 54.63  1.0583 2.0467 166.0 22.3  33d  87
2023 09 23 01  23 43 32.521   -13 46 49.44  1.0583 2.0465 166.0 22.3  33d  87
2023 09 23 02  23 43 30.039   -13 47 44.24  1.0582 2.0463 165.9 22.3  33d  86
2023 09 23 03  23 43 27.557   -13 48 39.03  1.0581 2.0461 165.9 22.3  33d  86
2023 09 23 04  23 43 25.074   -13 49 33.81  1.0580 2.0459 165.9 22.3  33d  86
2023 09 23 05  23 43 22.592   -13 50 28.57  1.0579 2.0457 165.8 22.3  33d  86
2023 09 23 06  23 43 20.108   -13 51 23.32  1.0578 2.0455 165.8 22.3  33d  86
2023 09 23 07  23 43 17.625   -13 52 18.06  1.0577 2.0453 165.7 22.3  33d  86
2023 09 23 08  23 43 15.141   -13 53 12.78  1.0576 2.0451 165.7 22.3  33d  85
2023 09 23 09  23 43 12.657   -13 54 07.49  1.0575 2.0449 165.6 22.3  33d  85
2023 09 23 10  23 43 10.173   -13 55 02.19  1.0574 2.0447 165.6 22.3  33d  85
2023 09 23 11  23 43 07.688   -13 55 56.87  1.0573 2.0445 165.6 22.3  33d  85
2023 09 23 12  23 43 05.203   -13 56 51.54  1.0572 2.0443 165.5 22.3  33d  85
2023 09 23 13  23 43 02.718   -13 57 46.20  1.0572 2.0441 165.5 22.3  33d  85
2023 09 23 14  23 43 00.232   -13 58 40.84  1.0571 2.0439 165.4 22.3  33d  85
2023 09 23 15  23 42 57.747   -13 59 35.47  1.0570 2.0437 165.4 22.3  33d  85
2023 09 23 16  23 42 55.261   -14 00 30.09  1.0569 2.0435 165.3 22.3  33d  85
2023 09 23 17  23 42 52.774   -14 01 24.69  1.0568 2.0433 165.3 22.3  33d  85
2023 09 23 18  23 42 50.288   -14 02 19.28  1.0567 2.0431 165.2 22.3  33d  84
2023 09 23 19  23 42 47.801   -14 03 13.85  1.0566 2.0429 165.2 22.3  33d  84
2023 09 23 20  23 42 45.314   -14 04 08.41  1.0565 2.0427 165.2 22.3  33d  84
2023 09 23 21  23 42 42.827   -14 05 02.96  1.0565 2.0425 165.1 22.3  33d  84
2023 09 23 22  23 42 40.339   -14 05 57.49  1.0564 2.0423 165.1 22.3  33d  84
2023 09 23 23  23 42 37.852   -14 06 52.00  1.0563 2.0421 165.0 22.3  33d  84
2023 09 24 00  23 42 35.364   -14 07 46.50  1.0562 2.0420 165.0 22.3  33d  84
2023 09 24 01  23 42 32.876   -14 08 40.99  1.0561 2.0418 164.9 22.3  33d  84
2023 09 24 02  23 42 30.388   -14 09 35.46  1.0560 2.0416 164.9 22.3  33d  84
2023 09 24 03  23 42 27.899   -14 10 29.92  1.0560 2.0414 164.8 22.3  33d  84
2023 09 24 04  23 42 25.411   -14 11 24.36  1.0559 2.0412 164.8 22.3  33d  84
2023 09 24 05  23 42 22.922   -14 12 18.79  1.0558 2.0410 164.8 22.3  33d  84
2023 09 24 06  23 42 20.433   -14 13 13.20  1.0557 2.0408 164.7 22.3  33d  84
2023 09 24 07  23 42 17.944   -14 14 07.59  1.0556 2.0406 164.7 22.3  33d  84
2023 09 24 08  23 42 15.454   -14 15 01.97  1.0555 2.0404 164.6 22.3  33d  84
2023 09 24 09  23 42 12.965   -14 15 56.34  1.0555 2.0402 164.6 22.3  33d  84
2023 09 24 10  23 42 10.475   -14 16 50.69  1.0554 2.0400 164.5 22.3  33d  84
2023 09 24 11  23 42 07.986   -14 17 45.02  1.0553 2.0398 164.5 22.3  33d  84
2023 09 24 12  23 42 05.496   -14 18 39.34  1.0552 2.0396 164.4 22.3  33d  84
2023 09 24 13  23 42 03.006   -14 19 33.64  1.0551 2.0394 164.4 22.3  33d  84
2023 09 24 14  23 42 00.516   -14 20 27.93  1.0551 2.0392 164.4 22.3  33d  83
2023 09 24 15  23 41 58.026   -14 21 22.20  1.0550 2.0390 164.3 22.3  33d  83
2023 09 24 16  23 41 55.536   -14 22 16.45  1.0549 2.0388 164.3 22.3  33d  83